MST,Max TemperatureF,Mean TemperatureF,Min TemperatureF,Max Dew PointF,MeanDew PointF,Min DewpointF,Max Humidity, Mean Humidity, Min Humidity, Max Sea Level PressureIn, Mean Sea Level PressureIn, Min Sea Level PressureIn, Max VisibilityMiles, Mean VisibilityMiles, Min VisibilityMiles, Max Wind SpeedMPH, Mean Wind SpeedMPH, Max Gust SpeedMPH,PrecipitationIn, CloudCover, Events, WindDirDegrees
2012-10-1,87,76,64,34,31,28,31,21,12,30.09,29.95,29.91,10,10,10,10,6,,0.00,0,,200
2012-10-2,89,76,62,36,33,30,35,23,12,30.13,29.94,29.86,10,10,10,14,7,22,0.00,0,,264
2012-10-3,87,74,62,36,31,28,33,20,12,30.03,29.98,29.91,10,10,10,16,10,24,0.00,1,,253
2012-10-4,86,75,64,36,35,30,30,23,17,30.10,30.05,30.01,10,10,10,16,8,24,0.00,4,,257
2012-10-5,84,70,55,36,32,30,41,25,14,30.07,29.99,29.94,10,10,10,17,8,25,0.00,3,,248
2012-10-6,82,72,61,35,31,26,35,24,14,29.98,29.91,29.86,10,10,10,18,6,24,0.00,0,,251
2012-10-7,84,72,59,38,33,28,39,26,15,29.95,29.90,29.84,10,10,10,12,6,18,0.00,0,,233
2012-10-8,84,70,57,35,30,25,36,23,12,29.99,29.94,29.89,10,10,10,17,4,23,0.00,0,,234
2012-10-9,82,70,57,36,31,28,36,25,15,29.99,29.95,29.87,10,10,10,13,4,,0.00,0,,260
2012-10-10,82,68,55,43,37,32,47,32,18,30.01,29.93,29.86,10,10,10,15,5,26,0.00,0,,177
2012-10-11,82,70,59,50,42,34,54,38,21,29.93,29.88,29.84,10,10,10,20,6,30,0.00,5,,203
2012-10-12,73,63,53,49,34,16,63,37,11,30.04,29.96,29.85,10,10,10,24,15,34,0.00,1,,238
2012-10-13,72,59,46,36,32,28,61,39,20,30.18,30.08,30.01,10,10,10,12,6,,0.00,0,,267
2012-10-14,80,66,51,33,28,24,48,27,13,30.13,30.05,29.98,10,10,1,13,4,21,0.00,0,,157
2012-10-15,82,68,53,28,23,16,35,21,10,30.04,29.97,29.88,10,10,10,13,4,,0.00,2,,200
2012-10-16,80,68,57,30,25,21,31,21,13,29.97,29.88,29.81,10,10,10,12,5,,0.00,3,,262
2012-10-17,82,68,55,54,36,28,64,33,15,29.96,29.90,29.83,10,10,10,14,6,,0.00,3,,281
2012-10-18,78,68,57,55,49,45,88,54,30,30.17,30.00,29.94,10,10,10,10,6,,0.00,4,,286
2012-10-19,82,70,57,46,40,34,64,36,21,30.00,29.91,29.84,10,10,10,14,7,,0.00,4,,253
2012-10-20,82,71,60,43,38,33,46,32,18,29.88,29.83,29.77,10,10,10,20,8,26,0.00,0,,233
2012-10-21,78,68,57,42,37,30,55,37,17,29.91,29.86,29.81,10,10,10,16,5,23,0.00,0,,196
2012-10-22,80,66,53,39,35,28,58,35,16,29.96,29.91,29.85,10,10,10,15,5,20,0.00,0,,268
2012-10-23,82,68,55,37,33,30,45,29,15,29.92,29.87,29.82,10,10,10,15,5,22,0.00,3,,213
2012-10-24,78,66,55,37,32,27,45,31,15,29.93,29.87,29.83,10,10,10,17,7,28,0.00,1,,262
2012-10-25,75,62,48,26,20,14,41,23,11,30.02,29.96,29.90,10,10,10,13,8,,0.00,0,,301
2012-10-26,77,64,52,27,18,12,31,18,10,30.04,29.96,29.89,10,10,10,8,4,,0.00,0,,109
2012-10-27,75,60,45,30,28,25,49,32,18,30.07,29.98,29.89,10,10,10,12,5,,0.00,0,,72
2012-10-28,80,65,50,31,29,27,43,27,15,30.06,30.00,29.94,10,10,10,13,2,,0.00,0,,199
2012-10-29,78,66,55,37,29,21,44,25,12,30.27,30.11,29.99,10,10,10,9,6,,0.00,0,,252
2012-10-30,78,68,57,28,22,12,31,19,8,30.20,30.06,29.96,10,10,10,12,6,,0.00,0,,256
2012-10-31,78,68,57,28,23,18,29,19,11,30.10,29.99,29.93,10,10,10,9,6,,0.00,1,,240